GFSCGP_sfc_thetae_171.txt.gz
Theta_e
304 296 291 293 296 298 297 295 294 295 299 295 293 293 295 297 295 296 300 300 301 303 304 303 302 302 302 302 303 303 303 302 300 300 300 299 299 301 302 303 306 305 305 305
295 293 300 300 299 297 296 294 293 296 299 297 294 293 295 297 297 297 298 300 301 301 303 302 301 301 301 301 301 301 301 300 300 298 299 299 299 301 302 303 303 304 304 303
292 295 300 301 299 297 296 292 292 293 296 297 293 292 294 298 299 299 301 301 303 302 301 300 300 299 299 299 299 300 300 299 300 300 300 300 300 300 299 300 300 302 303 303
294 298 296 295 294 298 292 297 296 295 292 287 294 286 292 296 297 299 301 300 301 303 302 300 299 298 298 297 298 298 299 299 301 300 299 298 297 296 298 299 300 301 302 302
290 293 294 293 294 296 293 298 296 294 289 288 289 285 288 295 294 297 298 301 301 302 301 299 299 299 299 298 297 297 298 299 300 300 299 297 296 297 298 299 299 299 300 301
292 296 295 295 298 297 297 294 293 292 288 281 288 287 287 290 294 297 300 299 301 300 299 300 300 299 298 298 297 297 296 297 298 298 297 296 295 296 295 295 295 296 298 298
291 291 294 296 292 296 293 288 282 279 280 280 290 287 289 294 297 298 298 299 300 300 299 298 296 297 297 296 297 297 295 296 297 296 296 295 295 294 294 293 293 294 294 295
285 284 291 295 292 290 291 288 281 277 278 281 289 283 288 296 298 299 300 301 300 299 299 297 296 296 297 297 296 295 295 295 296 296 296 296 296 295 294 294 293 293 293 294
287 288 295 297 297 294 290 286 291 284 286 279 283 288 293 296 297 297 300 300 298 297 296 296 296 296 296 296 296 295 295 296 296 296 296 296 296 295 294 294 294 293 293 294
293 284 294 296 298 297 293 294 285 286 278 277 283 284 285 291 293 295 298 298 299 298 297 297 296 296 297 296 296 295 295 295 295 295 295 295 294 294 294 293 291 291 291 291
293 289 287 293 291 290 291 289 291 290 287 280 279 281 295 295 296 296 299 300 299 299 298 297 296 296 296 296 294 294 294 294 293 294 294 293 292 292 292 291 290 290 290 291
292 289 282 287 293 297 294 291 289 283 283 285 283 282 296 294 296 298 298 301 300 300 297 297 296 294 294 293 292 292 292 293 293 293 293 292 292 291 290 289 289 290 291 291
289 283 277 281 288 292 289 288 289 287 288 283 281 281 295 297 297 298 296 299 301 300 296 296 293 292 292 291 292 292 292 291 292 293 291 291 290 289 288 287 287 290 290 290
293 285 281 274 280 285 282 286 287 287 279 281 282 284 288 290 294 296 298 299 298 300 297 292 288 287 289 290 291 290 290 291 291 291 290 289 287 287 287 286 287 290 289 287
288 279 283 284 284 284 283 283 284 281 283 280 283 284 287 290 293 297 298 298 299 300 292 290 287 286 286 286 288 290 290 290 290 290 288 287 287 287 286 286 287 287 288 288
289 280 283 280 284 283 281 283 283 283 283 284 284 283 291 291 292 292 293 295 298 299 292 289 288 288 288 288 288 289 289 289 290 288 287 287 286 286 285 284 285 287 287 286
285 283 280 276 283 282 274 281 283 281 286 286 281 285 289 289 291 292 293 294 298 294 290 288 288 288 288 288 289 288 288 289 288 287 286 286 285 284 283 284 283 282 282 282
284 283 282 277 280 270 281 288 287 286 287 288 288 290 291 292 294 296 298 296 296 292 290 288 288 289 290 289 288 288 288 288 287 286 285 285 284 283 282 282 281 280 280 279
287 283 277 274 275 279 281 284 284 283 282 287 287 290 293 294 295 291 299 299 294 292 291 290 290 290 289 288 288 287 287 287 286 285 284 284 283 282 281 280 279 278 278 277
285 285 279 275 272 269 279 285 289 289 278 290 293 292 291 293 282 284 292 293 292 292 290 289 289 289 288 287 288 286 285 285 284 285 284 283 283 282 279 278 277 277 277 277
278 279 276 275 273 277 285 288 290 277 279 289 291 291 292 287 287 288 290 290 290 290 289 289 288 286 286 287 287 284 284 283 285 285 284 283 282 281 279 278 277 276 275 275
276 275 276 278 275 272 290 288 282 286 290 291 294 293 291 289 289 289 289 288 288 287 287 287 286 285 286 286 285 282 281 283 284 284 282 282 281 281 279 277 276 275 274 274
274 279 277 279 278 288 291 289 291 292 291 291 293 294 292 290 289 289 287 287 287 286 285 286 285 284 284 284 283 280 281 283 283 282 281 280 281 280 279 277 275 274 273 271
281 285 279 280 283 286 290 292 293 294 295 296 297 295 293 290 289 287 286 286 285 284 284 285 284 282 281 282 282 281 283 283 281 280 279 279 278 278 277 276 276 271 268 268
279 282 280 281 284 287 289 291 291 295 296 295 296 295 292 289 287 286 285 285 285 285 285 284 282 281 280 281 280 281 282 282 279 278 279 278 277 276 276 276 271 271 265 269
282 280 277 277 285 285 287 291 294 294 293 296 294 289 290 289 287 286 284 286 285 285 284 282 281 280 280 280 280 280 280 280 279 277 276 276 276 275 275 273 270 278 276 279

GFSCGP_sfc_thetae_174.txt.gz
Theta_e
300 294 290 294 292 293 293 292 291 295 299 294 293 292 294 296 292 293 301 303 302 302 302 302 303 302 302 302 302 302 300 298 299 298 298 297 298 299 300 302 303 303 302 302
294 291 299 301 296 294 293 291 292 295 298 295 293 291 294 295 294 295 297 300 301 298 299 300 300 301 301 300 301 300 299 298 297 297 297 297 297 299 300 301 301 302 302 302
290 294 298 298 297 295 294 291 291 291 294 295 291 292 292 296 295 297 298 302 301 300 298 298 299 299 299 298 299 299 298 298 298 298 298 297 298 298 298 299 299 300 302 301
289 294 295 294 292 295 291 297 296 295 289 285 293 285 291 293 295 297 297 297 300 301 300 299 298 297 298 295 297 298 298 298 298 298 297 296 294 294 296 297 298 299 300 299
287 289 289 290 292 294 290 295 293 293 288 284 287 283 286 292 292 295 297 297 299 300 299 298 297 297 296 297 297 297 298 298 297 297 297 296 294 294 295 295 295 297 297 297
290 294 291 291 294 294 296 292 291 290 287 281 287 285 286 287 291 295 299 300 297 299 298 297 298 297 295 296 296 296 296 296 296 296 295 294 293 293 292 292 293 293 294 295
289 290 293 294 289 292 291 287 280 280 279 280 289 286 288 292 296 295 296 298 296 299 297 295 295 295 295 295 295 296 296 295 295 295 294 294 293 293 292 292 291 291 292 292
285 283 288 295 290 287 288 288 281 277 278 281 288 282 287 294 297 299 298 297 297 296 296 295 295 296 296 296 296 295 295 295 296 296 295 295 295 294 294 293 292 291 290 291
284 285 293 294 296 292 287 285 291 284 285 280 281 285 291 295 295 297 296 295 294 294 294 295 296 296 296 294 294 293 295 295 296 296 295 295 294 294 292 292 291 291 291 292
291 282 291 294 295 295 290 291 283 284 277 275 280 281 283 290 293 295 293 292 292 293 294 295 295 295 295 294 294 293 294 294 294 294 294 293 293 293 291 291 290 290 290 290
291 287 286 291 289 287 290 288 289 287 285 278 277 281 292 292 294 294 295 294 293 294 294 295 295 296 295 294 294 293 293 293 293 293 292 292 292 291 290 289 289 289 289 289
290 287 281 285 293 295 294 290 288 283 282 285 283 283 296 294 296 297 297 299 297 296 295 295 295 294 293 292 292 292 291 292 292 292 292 291 291 289 288 287 288 289 288 289
288 284 276 280 287 290 287 287 288 286 286 281 278 282 295 294 294 298 297 298 298 295 294 294 293 292 292 291 292 291 291 291 292 292 291 289 288 287 286 286 287 288 287 287
292 285 281 276 279 283 281 285 287 286 278 280 281 282 287 291 292 296 298 297 298 299 297 293 289 287 290 291 290 290 290 290 291 290 288 287 286 286 285 285 286 286 287 286
288 279 283 284 284 285 283 282 283 281 282 279 281 282 286 289 291 295 298 298 297 298 295 291 288 287 287 288 289 289 289 289 289 287 286 286 286 285 285 284 284 285 286 284
288 279 281 280 283 283 281 283 282 282 283 283 283 282 287 292 293 294 295 297 296 297 293 291 289 288 288 288 288 288 288 288 288 286 286 286 285 284 283 283 283 283 282 281
284 280 280 277 282 281 273 281 282 280 284 284 280 285 289 289 290 290 291 293 293 294 293 289 288 288 288 289 289 287 288 288 286 286 286 285 284 282 282 282 281 280 279 279
282 281 280 278 280 270 280 286 286 284 286 286 285 286 287 291 293 292 293 295 295 295 291 289 288 288 289 289 289 289 288 287 285 285 284 284 282 281 280 280 278 278 277 276
286 282 277 276 275 279 280 283 282 281 280 286 285 287 291 292 291 288 292 294 292 291 290 289 290 290 289 289 289 288 287 286 285 284 283 283 281 280 279 277 276 276 276 275
284 284 278 277 272 268 277 284 288 287 276 287 288 288 290 290 281 284 289 290 289 289 289 289 289 289 288 288 288 287 285 284 283 283 283 283 281 279 277 276 275 276 275 275
277 277 275 275 274 277 284 287 289 275 276 289 291 290 290 286 287 287 289 288 289 289 289 289 289 288 288 288 287 284 284 283 284 283 282 281 279 278 277 276 276 275 274 274
275 271 272 277 274 270 288 286 280 285 288 290 290 291 290 289 287 288 288 288 288 287 288 288 287 287 287 287 285 283 282 284 283 282 281 280 279 279 277 275 274 274 273 272
274 277 276 276 275 285 287 287 290 292 290 291 291 292 292 289 289 288 286 286 286 286 286 286 285 284 284 285 285 282 281 283 282 280 279 279 279 278 277 275 273 273 273 271
279 282 277 279 281 283 285 288 292 293 291 294 295 295 292 290 290 287 286 285 284 284 284 284 283 282 281 283 283 282 282 282 281 278 279 279 278 277 276 276 275 271 268 268
278 279 278 278 281 284 286 288 290 291 293 294 294 295 293 291 287 285 285 283 282 282 283 283 281 281 281 281 281 282 281 281 279 279 279 278 278 276 276 275 271 270 263 267
280 278 274 274 281 282 284 287 291 291 292 293 293 292 294 289 286 286 284 284 283 283 283 282 281 281 279 279 278 279 281 280 279 277 277 276 276 275 274 273 269 277 273 277

GFSCGP_sfc_thetae_177.txt.gz
Theta_e
298 291 288 292 291 294 292 290 288 291 296 293 294 294 295 297 291 295 304 307 309 309 302 304 304 303 301 303 302 302 300 300 300 298 297 297 297 298 299 300 301 301 300 300
290 289 295 297 295 293 292 290 289 292 295 294 292 291 293 294 295 293 299 304 306 298 299 300 301 301 301 301 300 298 298 298 297 297 296 296 297 298 298 299 299 300 299 299
286 291 295 296 295 294 292 290 290 290 294 295 289 290 290 295 294 295 294 301 305 301 298 299 299 300 298 298 297 297 296 296 297 297 297 297 297 297 297 297 298 298 299 298
287 291 291 290 289 292 288 296 295 294 291 286 291 284 288 292 294 296 296 295 298 300 300 299 299 297 298 296 295 296 297 296 297 297 296 296 295 293 294 295 296 296 297 297
285 287 287 287 289 292 290 293 290 289 286 285 286 282 285 291 290 293 295 296 295 299 299 298 298 298 296 296 296 297 296 296 296 296 296 296 294 294 293 294 294 294 294 294
286 290 289 288 291 291 292 289 288 288 285 279 286 284 286 288 291 293 296 297 295 297 298 298 297 295 294 295 295 296 296 295 295 295 294 294 293 292 292 291 292 292 292 292
288 289 291 292 287 289 287 284 277 277 277 279 287 284 288 290 293 293 294 294 295 297 296 294 293 293 293 293 294 296 296 295 295 294 294 293 292 292 291 290 290 290 290 290
284 282 287 292 287 285 285 284 279 274 276 280 286 281 286 292 295 295 295 293 294 294 295 294 293 294 294 295 296 296 296 295 295 295 294 294 294 293 292 291 290 289 289 289
284 283 292 292 294 292 287 282 288 282 283 279 281 284 289 294 294 294 292 292 290 292 293 293 294 294 295 295 295 295 295 295 295 294 294 293 293 292 291 290 290 290 290 290
289 280 289 292 292 292 291 293 281 280 276 275 279 279 282 288 291 292 289 289 290 292 293 294 294 294 294 294 294 295 295 294 293 293 293 292 291 291 290 290 289 289 289 289
292 287 285 289 288 286 289 287 288 287 281 276 276 279 292 290 292 293 290 290 290 291 293 294 293 294 293 294 294 293 293 293 292 292 292 291 290 290 289 289 289 289 288 288
290 288 280 283 290 295 292 289 289 281 279 282 281 283 292 291 291 292 295 296 294 294 294 293 293 292 293 293 293 293 293 293 292 292 291 290 289 288 287 287 288 287 287 288
289 284 276 278 284 286 286 287 286 285 283 279 277 281 293 290 291 293 293 295 296 294 294 294 293 291 292 292 292 292 292 291 291 291 289 288 287 287 286 286 286 286 286 285
292 285 280 274 278 282 279 285 286 284 278 279 279 281 287 288 290 293 295 295 297 295 295 294 292 288 291 291 291 290 291 291 290 289 287 286 285 285 285 285 285 285 285 284
287 281 282 283 283 283 283 283 283 283 283 278 280 282 285 288 291 292 296 297 296 297 297 295 291 288 288 289 289 289 290 289 288 287 285 284 285 284 284 283 284 283 283 281
288 280 281 280 283 282 280 281 282 281 282 282 283 282 287 289 291 292 294 297 296 296 298 294 291 289 288 288 288 289 288 287 287 285 284 284 284 283 282 282 281 280 279 279
284 282 280 277 281 280 273 280 281 280 283 283 279 283 287 286 288 291 292 294 294 296 297 292 290 289 289 289 289 287 287 287 286 285 285 283 283 281 281 280 279 278 277 277
282 281 279 276 279 267 279 285 285 283 284 285 284 284 286 287 292 292 292 291 294 295 294 291 289 289 288 288 288 288 287 286 285 284 283 282 281 280 279 278 277 277 276 275
285 281 278 275 274 278 279 282 282 281 280 285 285 287 289 291 290 289 291 291 290 291 290 288 288 288 287 288 289 287 285 285 284 283 282 281 280 278 278 276 275 275 274 274
285 284 280 277 271 267 277 283 287 286 274 286 287 286 287 288 281 284 288 289 288 288 288 288 288 288 288 287 287 285 285 284 283 283 281 280 279 278 276 275 275 274 274 274
278 278 276 275 273 276 282 285 287 275 276 287 289 287 287 283 286 287 288 288 288 287 287 288 287 287 287 287 287 285 284 283 284 283 281 280 278 277 276 275 274 273 273 273
276 271 270 273 271 269 286 284 279 283 287 288 288 288 288 288 286 287 287 286 287 286 288 288 287 287 288 288 286 284 283 284 283 281 279 278 277 277 276 274 274 274 272 272
274 277 275 275 274 283 285 285 288 290 288 289 289 291 291 289 286 287 286 287 286 287 288 288 287 287 287 287 286 283 283 282 281 279 278 278 278 277 276 274 273 273 272 271
279 281 277 278 280 281 284 285 287 289 291 290 292 293 291 289 288 286 285 284 284 284 285 285 285 284 284 285 284 283 283 282 280 279 278 278 277 276 275 275 275 272 269 268
277 279 278 278 280 281 283 284 286 288 289 291 292 293 292 291 289 287 285 283 283 282 283 283 282 281 282 283 282 283 282 281 280 279 278 277 277 276 275 275 272 271 262 267
279 278 274 271 281 280 280 284 286 286 288 290 290 291 293 292 289 286 283 282 282 280 280 281 282 281 280 281 281 281 281 280 279 278 277 277 276 275 275 273 269 275 272 275

GFSCGP_sfc_thetae_180.txt.gz
Theta_e
296 290 287 291 291 292 290 288 287 288 293 290 291 291 294 297 292 292 295 306 310 313 315 307 305 304 303 303 303 302 301 301 301 300 300 299 297 297 298 299 300 299 298 297
288 288 294 294 293 291 290 289 288 291 293 292 289 291 295 296 295 295 294 299 308 308 301 301 302 302 302 303 303 301 301 300 300 300 296 297 297 297 297 298 298 298 297 296
286 290 293 294 292 291 289 288 288 289 292 293 289 290 291 293 293 295 293 297 305 306 301 300 300 301 302 301 300 300 299 297 297 296 298 297 297 296 295 295 295 296 296 295
287 291 291 290 287 290 285 293 293 292 288 284 290 281 286 290 293 294 295 293 296 301 301 300 300 299 300 300 297 296 297 296 296 297 299 297 296 294 293 293 294 294 294 294
285 286 286 285 287 290 287 293 290 289 284 282 284 281 283 289 289 292 294 295 294 298 299 299 299 299 299 296 295 297 297 297 296 296 297 296 293 294 294 293 291 291 292 292
285 288 287 287 290 289 290 287 286 285 283 278 284 283 285 285 289 291 294 295 294 293 296 297 297 295 294 296 295 296 297 295 296 296 296 295 294 293 291 290 290 290 291 291
286 288 289 290 286 288 286 282 276 275 276 277 285 282 286 289 291 291 291 291 292 294 294 293 292 293 293 293 294 295 295 294 295 294 294 293 293 292 291 290 290 289 289 289
281 280 287 290 287 284 283 282 276 273 274 277 284 279 283 292 293 292 292 291 291 291 292 292 292 293 293 293 294 295 294 294 294 294 293 293 293 292 291 290 290 289 289 289
283 283 290 292 291 290 285 280 285 280 281 276 280 282 288 293 292 290 289 290 289 289 290 291 293 293 294 294 293 294 294 294 294 294 294 293 293 291 290 290 290 289 289 289
289 282 288 291 291 292 290 292 283 282 274 273 277 278 279 286 288 290 288 288 289 290 290 291 292 293 294 294 295 295 295 294 293 294 293 292 291 290 290 290 289 288 288 287
291 287 284 288 285 285 287 285 286 285 284 276 275 278 289 287 289 289 292 290 289 290 291 291 290 291 293 294 294 294 294 293 292 292 291 290 290 289 289 289 288 288 288 287
289 285 280 283 289 292 291 288 287 279 278 281 280 282 290 290 290 291 292 295 294 293 293 293 292 293 293 293 293 293 293 292 292 291 290 289 289 289 288 287 287 288 286 286
288 283 277 279 285 285 286 287 287 285 282 278 276 278 291 289 290 291 293 295 296 294 295 294 292 291 292 293 293 293 293 292 292 291 289 288 287 287 286 286 286 285 285 284
291 283 279 275 278 281 281 284 285 283 273 277 279 281 287 289 288 290 293 295 296 296 295 295 293 290 292 293 293 293 292 291 290 289 287 286 286 286 285 285 284 284 283 281
286 279 281 282 283 283 282 282 284 281 280 276 279 280 284 287 288 291 292 295 295 296 295 294 294 290 291 292 292 292 291 290 289 287 285 284 284 284 284 283 282 282 281 281
286 279 281 279 282 282 280 282 282 282 282 283 282 280 286 287 290 291 292 294 295 296 296 296 295 293 290 291 290 290 288 287 287 285 284 284 283 282 281 281 280 279 279 279
282 279 278 276 281 281 276 280 280 279 282 282 278 281 284 286 287 288 291 293 295 297 297 296 296 292 291 289 289 288 287 287 286 284 284 283 282 281 280 279 278 277 276 277
282 281 281 277 279 270 279 284 284 282 283 284 283 283 286 288 289 292 292 290 292 293 295 296 295 292 291 290 288 288 287 286 285 284 283 282 281 280 279 278 277 275 275 274
285 282 278 275 274 277 279 282 281 280 279 285 284 286 286 288 289 288 291 291 290 290 290 292 294 291 289 288 288 286 285 285 284 283 282 281 281 279 277 276 275 275 274 273
284 285 280 277 271 267 276 281 285 284 275 286 286 285 285 285 279 282 288 288 286 286 286 287 288 288 288 287 287 285 285 284 283 283 281 281 280 278 276 275 274 274 273 274
279 279 276 275 273 275 281 284 286 274 275 286 286 286 285 282 284 287 287 286 286 286 286 287 287 287 287 287 287 285 284 283 284 282 281 280 278 277 276 274 274 273 273 273
277 275 273 276 273 269 284 283 279 281 283 286 286 287 286 286 287 286 286 285 285 284 286 286 285 286 287 287 286 284 283 284 283 281 279 278 277 277 275 274 273 273 272 272
276 279 276 276 275 282 284 284 285 287 286 286 287 289 289 288 287 287 285 285 285 285 287 288 287 287 287 287 286 284 284 283 281 279 278 277 277 276 275 274 272 272 272 270
280 281 278 279 280 281 284 284 284 283 283 287 289 290 290 289 288 287 286 285 286 287 287 288 287 286 285 286 286 284 283 282 280 278 277 277 276 275 275 274 274 271 269 268
279 280 278 278 279 281 281 282 282 284 287 286 287 289 290 290 289 287 285 285 285 284 285 287 286 285 284 284 284 284 283 281 279 278 278 277 276 274 274 274 271 270 263 267
279 279 276 274 280 280 279 282 284 284 283 284 286 285 286 290 290 287 285 284 282 282 283 284 284 283 283 283 283 282 282 281 279 278 277 276 276 274 274 271 267 275 271 275